Home   Weather   Bridgetown   Past weeks

Flag for Barbados Past Weather in Bridgetown, Barbados — Yesterday and Last 2 Weeks

Now
81 °F

Passing clouds.


Feels Like: 86 °F
Forecast: 80 / 84 °F
Wind: 22 mph from East

Location: Grantley Adams

Current Time: Apr 25, 2017 at 10:05:34 pm

Latest Report: Apr 25, 2017 at 9:00 pm


Visibility: N/A

Pressure: 29.92 "Hg

Humidity: 84%

Dew Point: 75 °F

Location of BridgetownLocation

Past Weather in Bridgetown — Graph

°F

Bridgetown Temperature Yesterday

Maximum temperature yesterday: 88 °F (at 11:00 am)
Minimum temperature yesterday: 79 °F (at 2:00 am)
Average temperature yesterday: 82 °F

High & Low Weather Summary for the Past Weeks

 TemperatureHumidityPressure
High88 °F (Apr 14, 2:00 pm)94% (Apr 19, 3:00 pm)30.01 "Hg (Apr 19, 3:00 pm)
Low75 °F (Apr 19, 4:00 pm)59% (Apr 11, 9:00 am)29.86 "Hg (Apr 11, 3:00 am)
Average82 °F74%29.93 "Hg
* Reported Apr 10 8:00 pm — Apr 25 8:00 pm, Bridgetown, Weather by CustomWeather, © 2017

Note: Actual official high and low records may vary slightly from our data, if they occured in-between our weather recording intervals... More about our weather records

Advertising

Bridgetown Weather History for the Previous 24 Hours

Scroll right to see more
 ConditionsComfort  
Time TempWeatherWind HumidityBarometerVisibility
8:00 pm
Tue, Apr 25
81 °FPartly cloudy.21 mph84%29.89 "HgN/A
7:00 pm81 °FPartly cloudy.18 mph84%29.89 "HgN/A
6:00 pm81 °FPartly sunny.20 mph89%29.89 "HgN/A
5:00 pm82 °FBroken clouds.20 mph79%29.89 "HgN/A
4:00 pm84 °FPartly sunny.20 mph74%29.86 "HgN/A
3:00 pm86 °FPartly sunny.17 mph75%29.89 "HgN/A
2:00 pm86 °FScattered clouds.17 mph70%29.89 "HgN/A
1:00 pm88 °FScattered clouds.17 mph66%29.92 "HgN/A
12:00 pm88 °FPassing clouds.17 mph66%29.95 "HgN/A
11:00 am86 °FScattered clouds.17 mph70%29.95 "HgN/A
10:00 am86 °FScattered clouds.17 mph66%29.95 "HgN/A
9:00 am86 °FScattered clouds.17 mph70%29.95 "HgN/A
8:00 am84 °FScattered clouds.17 mph74%29.95 "HgN/A
7:00 am82 °FScattered clouds.16 mph79%29.92 "HgN/A
6:00 am81 °FScattered clouds.17 mph79%29.89 "HgN/A
5:00 am79 °FPassing clouds.15 mph84%29.89 "HgN/A
4:00 am79 °FPassing clouds.17 mph84%29.89 "HgN/A
3:00 am81 °FPassing clouds.17 mph79%29.89 "HgN/A
2:00 am81 °FPassing clouds.18 mph79%29.89 "HgN/A
1:00 am81 °FPassing clouds.18 mph79%29.89 "HgN/A
12:00 am81 °FPassing clouds.21 mph79%29.92 "HgN/A
11:00 pm
Mon, Apr 24
81 °FPassing clouds.24 mph79%29.95 "HgN/A
10:00 pm81 °FPassing clouds.22 mph79%29.92 "HgN/A
Weather by CustomWeather, © 2017

See weather overviewHow to use our weather pages